[[{"header":{"parameterUnit":"m.s-1","parameterCategory":1,"la1":30.2991,"la2":30.254,"lo1":-89.0895,"lo2":-89.0444,"dy":0.0017,"dx":0.0017,"nx":28,"ny":28,"refTime":"2025-01-20T03:00:00:Z","depth":0,"parameterNumber":2,"parameterNumberName":"U-component_of_WINDS"},"data":[0,0,0,0,0,0,0,0,0,0,0,0,0,0,0,0,0,0,0,0,0,0,0,0,0,0,0,0,0,0,0,0,0,0,0,0,0,0,0,0,0,0,0,0,0,0,0,0,0,0,0,0,0,0,0,0,0,0,-1.3366,-1.3366,0,-1.3444,-1.3444,-1.3445,-1.3429,-1.3428,-1.3426,-1.3425,-1.3506,-1.3509,-1.3513,0,0,0,0,0,0,0,0,0,0,0,0,0,-1.3203,-1.3206,-1.3366,-1.3367,-1.3367,-1.3443,-1.3444,-1.3446,-1.3429,-1.3428,-1.3426,-1.3424,-1.3505,-1.3509,-1.3513,0,0,0,0,0,0,0,0,0,0,0,0,0,-1.3277,-1.3207,-1.3365,-1.3369,-1.337,-1.3443,-1.3444,-1.3446,-1.343,-1.3428,-1.3426,-1.3424,-1.3504,-1.3509,-1.3514,-1.3589,0,0,-1.353,-1.3532,0,0,0,0,0,0,0,0,-1.3272,-1.3283,-1.3367,-1.3369,-1.337,-1.3424,-1.3417,-1.3494,-1.343,-1.3407,-1.3425,-1.3422,-1.3481,-1.3488,-1.3507,-1.3593,-1.3597,-1.353,-1.3534,-1.3536,-1.3537,0,0,0,0,0,0,0,-1.3267,-1.3279,-1.3396,-1.3368,-1.337,-1.3366,-1.3374,-1.3431,-1.3455,-1.3409,-1.3408,-1.3417,-1.3481,-1.3502,-1.3509,-1.3598,-1.353,-1.3535,-1.3538,-1.354,-1.3749,-1.3751,0,0,0,0,0,0,-1.3261,-1.3275,-1.3394,-1.3399,-1.3315,-1.3371,-1.338,-1.3409,-1.3454,-1.3459,-1.3419,-1.3416,-1.3494,-1.3503,-1.3512,-1.3603,-1.3536,-1.3541,-1.3544,-1.3747,-1.375,-1.3752,0,0,0,0,0,0,-1.3258,-1.3272,-1.3391,-1.3337,-1.3351,-1.3376,-1.3409,-1.3412,-1.3433,-1.3462,-1.3466,-1.3436,-1.3493,-1.3504,-1.357,-1.3606,-1.3543,-1.3548,-1.3744,-1.3748,-1.3751,-1.3787,0,0,0,0,0,0,-1.3253,-1.3271,-1.33,-1.3337,-1.3354,-1.3448,-1.3411,-1.3415,-1.3442,-1.3439,-1.3479,-1.3484,-1.3492,-1.3562,-1.3575,-1.3612,-1.3552,-1.3741,-1.3745,-1.375,-1.3783,-1.3791,-1.3799,0,0,0,0,0,-1.3247,-1.3307,-1.3301,-1.3316,-1.3391,-1.345,-1.346,-1.3468,-1.3445,-1.3474,-1.3493,-1.3483,-1.3599,-1.3569,-1.3584,-1.3623,-1.3739,-1.3744,-1.3749,-1.3779,-1.379,-1.3799,0,0,0,0,0,0,-1.3274,-1.3312,-1.3306,-1.338,-1.3412,-1.3447,-1.3485,-1.3479,-1.3518,-1.3514,-1.3522,-1.3531,-1.3598,-1.3616,-1.3582,-1.3697,-1.3666,-1.3674,-1.3683,-1.3694,-1.3702,-1.3697,-1.3556,0,0,0,0,0,-1.3289,-1.3333,-1.3364,-1.3426,-1.3442,-1.3461,-1.3487,-1.349,-1.3523,-1.3537,-1.356,-1.3593,-1.3637,-1.3666,-1.3708,-1.3784,-1.3793,-1.3818,-1.3826,-1.3833,-1.3841,-1.3882,-1.3894,-1.377,-1.377,-1.377,0,0,-1.332,-1.3346,-1.3373,-1.3432,-1.3457,-1.3503,-1.3472,-1.3522,-1.3557,-1.3544,-1.3608,-1.3626,-1.3663,-1.3734,-1.3767,-1.3752,-1.3876,-1.3839,-1.3844,-1.3849,-1.3889,-1.3901,-1.3911,-1.3774,-1.3773,-1.3772,0,0,-1.3399,-1.3423,-1.3478,-1.3503,-1.354,-1.3552,-1.3565,-1.3601,-1.3612,-1.3676,-1.3667,-1.3708,-1.3783,-1.381,-1.3834,-1.3921,-1.3913,-1.3934,-1.3977,-1.4017,-1.4027,-1.4036,-1.4068,-1.4079,-1.3942,-1.3942,-1.3942,0,-1.3433,-1.3502,-1.3507,-1.3557,-1.3584,-1.3573,-1.3628,-1.3652,-1.3702,-1.372,-1.3702,-1.3796,-1.3821,-1.3898,-1.3919,-1.3938,-1.3953,-1.3931,-1.4025,-1.4034,-1.4042,-1.4073,-1.4085,-1.3944,-1.3944,-1.3944,-1.3943,0,-1.3542,-1.3589,-1.3629,-1.3676,-1.3706,-1.3759,-1.3772,-1.3802,-1.3801,-1.3814,-1.3879,-1.3907,-1.3955,-1.3973,-1.3973,-1.405,-1.4039,-1.4023,-1.3992,-1.4056,-1.4085,-1.4097,-1.3948,-1.3947,-1.3946,-1.3945,0,0,-1.3644,-1.3691,-1.3706,-1.3727,-1.3767,-1.3804,-1.3855,-1.3901,-1.3926,-1.396,-1.4004,-1.4067,-1.4052,-1.4079,-1.4081,-1.4117,-1.4184,-1.4096,-1.4097,-1.4112,-1.4271,-1.4284,-1.4298,-1.4178,-1.4181,-1.4182,-1.4268,0,-1.3728,-1.3819,-1.3824,-1.3907,-1.3951,-1.394,-1.3985,-1.4014,-1.4027,-1.4066,-1.408,-1.4125,-1.4102,-1.4118,-1.4152,-1.4169,-1.4217,-1.4163,-1.422,-1.4222,-1.4213,-1.4313,-1.4327,-1.4407,-1.4279,-1.4281,-1.4283,0,-1.384,-1.3876,-1.3963,-1.3995,-1.4014,-1.4054,-1.4096,-1.4133,-1.4165,-1.4172,-1.4201,-1.4198,-1.4251,-1.4215,-1.4288,-1.4251,-1.4275,-1.4286,-1.4289,-1.4297,-1.4258,-1.4324,-1.4432,-1.4445,-1.43,-1.4299,-1.4298,0,-1.3906,-1.3977,-1.4038,-1.4056,-1.4095,-1.4124,-1.4141,-1.4171,-1.4198,-1.4234,-1.4251,-1.4293,-1.4316,-1.4349,-1.4357,-1.4331,-1.443,-1.4395,-1.4438,-1.4438,-1.4461,-1.446,-1.4576,-1.4473,-1.4473,-1.4473,-1.4473,0,-1.4001,-1.4055,-1.4068,-1.4106,-1.4166,-1.417,-1.4229,-1.4245,-1.4271,-1.4312,-1.4304,-1.4342,-1.4351,-1.439,-1.4397,-1.4456,-1.4467,-1.4474,-1.4476,-1.4476,-1.4475,-1.4493,-1.4488,-1.4476,-1.4475,-1.4475,-1.4474,0,-1.4087,-1.4098,-1.4164,-1.4195,-1.4203,-1.4246,-1.4273,-1.4309,-1.4319,-1.4371,-1.4383,-1.4401,-1.4447,-1.4458,-1.4513,-1.4517,-1.4588,-1.4583,-1.4577,-1.4578,-1.462,-1.4616,-1.4753,-1.4771,-1.4655,-1.4656,-1.4657,0,-1.4148,-1.4189,-1.4224,-1.425,-1.4268,-1.4311,-1.4338,-1.4343,-1.4371,-1.4409,-1.4441,-1.4486,-1.4523,-1.4597,-1.4615,-1.4656,-1.4654,-1.4698,-1.466,-1.4659,-1.4656,-1.4654,-1.4658,-1.4707,-1.4708,-1.4709,-1.471,0,-1.4255,-1.4258,-1.4297,-1.4337,-1.4369,-1.4401,-1.4432,-1.4453,-1.4462,-1.4494,-1.4541,-1.4569,-1.4625,-1.467,-1.4711,-1.4729,-1.4722,-1.4721,-1.4733,-1.4735,-1.473,-1.4734,-1.4599,-1.4719,-1.4718,-1.4717,-1.4717,-1.4716,-1.4332,-1.4367,-1.4397,-1.444,-1.4463,-1.4491,-1.4526,-1.4541,-1.458,-1.4625,-1.4625,-1.4676,-1.4706,-1.4761,-1.4781,-1.4821,-1.4807,-1.4824,-1.4829,-1.4834,-1.4838,-1.4722,-1.4828,-1.4828,-1.4828,-1.4827,-1.4827,0,-1.4439,-1.4457,-1.4496,-1.4539,-1.4572,-1.456,-1.4593,-1.4622,-1.4667,-1.4695,-1.473,-1.4783,-1.4826,-1.4846,-1.4889,-1.4917,-1.4914,-1.4928,-1.4927,-1.4931,-1.4847,-1.4833,-1.4929,-1.4929,-1.4929,-1.4929,-1.4929,-1.4929,-1.4499,-1.4559,-1.4565,-1.4636,-1.4653,-1.4702,-1.4722,-1.4748,-1.477,-1.483,-1.4865,-1.4877,-1.4902,-1.4946,-1.4985,-1.4989,-1.5006,-1.5022,-1.5025,-1.4947,-1.4937,-1.4927,-1.4914,-1.5025,-1.5025,-1.5105,-1.5106,-1.5106]},{"header":{"parameterUnit":"m.s-1","parameterCategory":1,"la1":30.2991,"la2":30.254,"lo1":-89.0895,"lo2":-89.0444,"dy":0.0017,"dx":0.0017,"nx":28,"ny":28,"refTime":"2025-01-20T03:00:00:Z","depth":0,"parameterNumber":3,"parameterNumberName":"V-component_of_WINDS"},"data":[0,0,0,0,0,0,0,0,0,0,0,0,0,0,0,0,0,0,0,0,0,0,0,0,0,0,0,0,0,0,0,0,0,0,0,0,0,0,0,0,0,0,0,0,0,0,0,0,0,0,0,0,0,0,0,0,0,0,-9.6937,-9.6939,0,-9.7188,-9.719,-9.7193,-9.7096,-9.709,-9.7084,-9.7079,-9.7329,-9.7341,-9.7353,0,0,0,0,0,0,0,0,0,0,0,0,0,-9.6366,-9.6377,-9.6936,-9.694,-9.6943,-9.7187,-9.7191,-9.7194,-9.7097,-9.709,-9.7083,-9.7076,-9.7325,-9.7339,-9.7354,0,0,0,0,0,0,0,0,0,0,0,0,0,-9.6615,-9.6381,-9.6936,-9.6924,-9.6925,-9.7186,-9.7191,-9.7195,-9.7098,-9.7089,-9.7081,-9.7073,-9.732,-9.7338,-9.7356,-9.7642,0,0,-9.7411,-9.7419,0,0,0,0,0,0,0,0,-9.6601,-9.6636,-9.6922,-9.6925,-9.6927,-9.7102,-9.7081,-9.7344,-9.71,-9.7032,-9.7078,-9.7068,-9.726,-9.7282,-9.7348,-9.7653,-9.7664,-9.7413,-9.7424,-9.7431,-9.7436,0,0,0,0,0,0,0,-9.6584,-9.6624,-9.7035,-9.6927,-9.693,-9.6903,-9.6929,-9.7131,-9.7192,-9.7038,-9.7031,-9.7063,-9.7259,-9.7331,-9.7353,-9.7668,-9.7412,-9.7428,-9.7439,-9.7446,-9.8219,-9.8229,0,0,0,0,0,0,-9.6567,-9.6611,-9.7027,-9.7043,-9.6739,-9.6921,-9.695,-9.7054,-9.7189,-9.7202,-9.707,-9.7057,-9.7304,-9.7332,-9.7362,-9.7707,-9.7431,-9.7448,-9.7459,-9.821,-9.8222,-9.8232,0,0,0,0,0,0,-9.6555,-9.6605,-9.7017,-9.6825,-9.6876,-9.694,-9.7058,-9.7064,-9.7136,-9.7214,-9.7223,-9.7132,-9.7299,-9.7336,-9.7573,-9.7714,-9.7456,-9.7473,-9.8198,-9.8213,-9.8227,-9.8398,0,0,0,0,0,0,-9.6539,-9.6601,-9.6712,-9.6829,-9.6887,-9.7228,-9.7067,-9.7075,-9.7168,-9.7154,-9.7275,-9.7287,-9.7295,-9.7547,-9.7591,-9.7734,-9.7487,-9.8186,-9.8205,-9.8222,-9.838,-9.8416,-9.8447,0,0,0,0,0,-9.6519,-9.6749,-9.6718,-9.6769,-9.7027,-9.7236,-9.7269,-9.7275,-9.718,-9.7291,-9.7341,-9.7283,-9.7691,-9.7572,-9.7621,-9.7771,-9.8177,-9.82,-9.8221,-9.8365,-9.8409,-9.8447,0,0,0,0,0,0,-9.6645,-9.6764,-9.6732,-9.7006,-9.7112,-9.7219,-9.736,-9.7322,-9.7455,-9.7436,-9.7436,-9.7465,-9.7709,-9.7763,-9.7629,-9.8055,-9.7919,-9.7952,-9.8012,-9.8055,-9.8088,-9.807,-9.7502,0,0,0,0,0,-9.6705,-9.6867,-9.6961,-9.7194,-9.7249,-9.7296,-9.7386,-9.7383,-9.7491,-9.7535,-9.7602,-9.7707,-9.7859,-9.7959,-9.8103,-9.8386,-9.8411,-9.8513,-9.8547,-9.8574,-9.8603,-9.8757,-9.8804,-9.8304,-9.8303,-9.8303,0,0,-9.683,-9.6915,-9.7017,-9.7222,-9.7303,-9.7469,-9.7334,-9.7514,-9.7637,-9.7561,-9.7791,-9.7843,-9.796,-9.8222,-9.834,-9.8275,-9.8747,-9.8602,-9.8624,-9.8638,-9.8784,-9.8832,-9.8874,-9.8318,-9.8316,-9.8313,0,0,-9.7144,-9.7225,-9.7429,-9.7513,-9.7639,-9.7668,-9.7717,-9.783,-9.7864,-9.8094,-9.8041,-9.8184,-9.8446,-9.8532,-9.861,-9.8956,-9.8908,-9.9002,-9.918,-9.933,-9.9369,-9.9404,-9.9529,-9.9573,-9.903,-9.9031,-9.9031,0,-9.7284,-9.7534,-9.7537,-9.7724,-9.7815,-9.7756,-9.7962,-9.8042,-9.8208,-9.8271,-9.8195,-9.8523,-9.8598,-9.8879,-9.8964,-9.9028,-9.9083,-9.899,-9.9364,-9.9399,-9.9431,-9.955,-9.9597,-9.9042,-9.904,-9.9039,-9.9038,0,-9.77,-9.7874,-9.8022,-9.8187,-9.8294,-9.8489,-9.8521,-9.8628,-9.8615,-9.8651,-9.8886,-9.8973,-9.9134,-9.92,-9.9187,-9.948,-9.9435,-9.9362,-9.9226,-9.949,-9.9602,-9.9647,-9.9057,-9.9053,-9.905,-9.9047,0,0,-9.8102,-9.8266,-9.8321,-9.8395,-9.8529,-9.8662,-9.8853,-9.9013,-9.9106,-9.9221,-9.9381,-9.9603,-9.9536,-9.9625,-9.9621,-9.9753,-10.0022,-9.9663,-9.9665,-9.9728,-10.035,-10.0407,-10.0459,-9.999,-9.9998,-10.0005,-10.0341,0,-9.8427,-9.8767,-9.8775,-9.9084,-9.9245,-9.919,-9.9356,-9.9455,-9.9494,-9.9634,-9.9675,-9.9834,-9.9733,-9.9786,-9.9914,-9.9963,-10.0147,-9.9938,-10.0138,-10.0145,-10.0113,-10.0517,-10.0578,-10.089,-10.0384,-10.0392,-10.0397,0,-9.8853,-9.8985,-9.9312,-9.9423,-9.9491,-9.9641,-9.9788,-9.9922,-10.0032,-10.0051,-10.0151,-10.0127,-10.032,-10.0176,-10.0442,-10.0299,-10.0381,-10.0417,-10.0429,-10.045,-10.0289,-10.055,-10.099,-10.1038,-10.0466,-10.046,-10.0455,0,-9.9116,-9.9375,-9.9604,-9.9668,-9.9804,-9.991,-9.9971,-10.0073,-10.0168,-10.0295,-10.0357,-10.0504,-10.0585,-10.0699,-10.0714,-10.0608,-10.0981,-10.0839,-10.1002,-10.1002,-10.1085,-10.108,-10.1546,-10.1134,-10.1134,-10.1133,-10.1132,0,-9.9481,-9.9683,-9.9724,-9.9866,-10.009,-10.0096,-10.0317,-10.0368,-10.0459,-10.0608,-10.0567,-10.0707,-10.0719,-10.0862,-10.0875,-10.1093,-10.1129,-10.1149,-10.115,-10.1155,-10.1152,-10.1209,-10.1189,-10.1145,-10.1142,-10.114,-10.1138,0,-9.9813,-9.9849,-10.0096,-10.0204,-10.0235,-10.0396,-10.0487,-10.0621,-10.0655,-10.0844,-10.0888,-10.0941,-10.1108,-10.1134,-10.1329,-10.1337,-10.1599,-10.1577,-10.1564,-10.1561,-10.1724,-10.1709,-10.2245,-10.2315,-10.1856,-10.186,-10.1864,0,-10.0045,-10.02,-10.0325,-10.0423,-10.049,-10.0647,-10.0745,-10.0756,-10.0859,-10.0996,-10.1113,-10.1276,-10.1407,-10.1675,-10.173,-10.1878,-10.186,-10.2038,-10.1882,-10.1882,-10.1865,-10.1857,-10.1872,-10.2068,-10.2073,-10.2077,-10.2081,0,-10.0452,-10.0462,-10.0606,-10.0758,-10.0876,-10.0995,-10.1106,-10.1188,-10.1213,-10.133,-10.1502,-10.1604,-10.1803,-10.1965,-10.2113,-10.2171,-10.2132,-10.2129,-10.2175,-10.2182,-10.2168,-10.2179,-10.1648,-10.2117,-10.2113,-10.2111,-10.2109,-10.2107,-10.0743,-10.0878,-10.0988,-10.115,-10.1235,-10.1341,-10.1472,-10.1524,-10.1667,-10.1833,-10.1829,-10.2017,-10.2121,-10.2316,-10.2385,-10.253,-10.2473,-10.2539,-10.2556,-10.2573,-10.259,-10.2143,-10.2557,-10.2556,-10.2555,-10.2554,-10.2553,0,-10.115,-10.1217,-10.1366,-10.1525,-10.1652,-10.1604,-10.1725,-10.1834,-10.2001,-10.2103,-10.2233,-10.243,-10.2586,-10.2653,-10.2806,-10.291,-10.2895,-10.295,-10.2944,-10.2958,-10.2632,-10.2578,-10.296,-10.296,-10.296,-10.2959,-10.2959,-10.2959,-10.1377,-10.1604,-10.1627,-10.1895,-10.196,-10.2146,-10.222,-10.2316,-10.2398,-10.262,-10.2751,-10.2794,-10.2882,-10.3041,-10.3182,-10.3197,-10.3256,-10.332,-10.3328,-10.3022,-10.2981,-10.2942,-10.2891,-10.3333,-10.3333,-10.3642,-10.3645,-10.3647]}]]